Notices

What's New in latest Release from April 7th, 2021:

- Updated Glossary, including Speed of Maximum Gust, and Total Hourly Precipitation

- Updated national and regional climate services offices contacts and prices information

- Addition of station inventory lists for 1981-2010, 1971-2000, and 1961-1990 Normals.

If you haven't already, please take our survey and provide feedback about our website: https://eccc.sondage-survey.ca/f/LanguageSelection.aspx?s=442ca660-fcf1-47c0-95a9-59707d6fd709

Hourly Data Report for January 03, 2012

HALIFAX STANFIELD INT'L A
NOVA SCOTIA

44°52'48.060" N
63°30'00.050" W
145.40 m
8202250
71395
YHZ

Download Data

Hourly Data (January 2012)
Hourly Data Report for January 3, 2012
TIME
LST
Temp Definition
°C
Dew Point Definition
°C
Rel Hum Definition
%
Precip. Amount Definition
mm

Wind Dir Definition
10's deg

Wind Spd Definition
km/h
Visibility Definition
km
Stn Press Definition
kPa
Hmdx Definition


Wind Chill Definition


Weather Definition


00:00 0.4 -1.4 88   21 17 24.1 98.40     Mainly Clear
01:00 -0.6 -1.7 92   20 17 24.1 98.41   -6 Mainly Clear
02:00 0.0 -1.4 90   21 17 24.1 98.46   -5 Mostly Cloudy
03:00 0.5 -1.2 88   21 13 24.1 98.53     Mainly Clear
04:00 -0.7 -1.8 92   19 13 24.1 98.50   -5 Mostly Cloudy
05:00 0.2 -1.6 88   21 15 24.1 98.50     Mostly Cloudy
06:00 0.1 -1.8 87   21 15 24.1 98.50     Mostly Cloudy
07:00 0.1 -2.1 85   22 15 24.1 98.57     Mostly Cloudy
08:00 -0.5 -2.2 88   20 13 24.1 98.56   -5 Mostly Cloudy
09:00 0.2 -1.6 88   20 9 24.1 98.68     Mostly Cloudy
10:00 0.9 -1.2 86   19 11 24.1 98.74     Mostly Cloudy
11:00 1.8 -1.0 82   24 13 24.1 98.69     Mostly Cloudy
12:00 2.3 -1.9 74   24 6 24.1 98.66     Mostly Cloudy
13:00 3.6 -2.3 65   21 7 24.1 98.55     Mostly Cloudy
14:00 2.1 -2.3 73   32 7 24.1 98.56     Snow Showers
15:00 2.5 -3.4 65   30 9 24.1 98.52     Mostly Cloudy
16:00 0.8 -2.2 80   35 17 24.1 98.60     Mostly Cloudy
17:00 -0.2 -4.0 76   32 19 24.1 98.72   -5 Mostly Cloudy
18:00 -0.8 -3.8 80   35 15 24.1 98.72   -5 Snow Showers
19:00 -0.8 -3.8 80   32 20 24.1 98.77   -6 Snow Showers
20:00 -1.9 -4.9 80   36 19 24.1 98.88   -7 Cloudy
21:00 -2.6 -5.5 80   1 17 24.1 98.88   -8 Cloudy
22:00 -2.9 -6.5 76   2 19 24.1 98.87   -9 Cloudy
23:00 -3.3 -7.3 74   36 20 24.1 98.84   -9 Cloudy

Notes on Data Quality.

Legend

  • E = Estimated
  • M = Missing
  • NA = Not Available*
  • [empty] = Indicates an unobserved value
Date modified: